TimeCET,TemperatureF,Dew PointF,Humidity,Sea Level PressureIn,VisibilityMPH,Wind Direction,Wind SpeedMPH,Gust SpeedMPH,PrecipitationIn,Events,Conditions,WindDirDegrees,DateUTC
12:00 AM,48.2,46.4,93,30.01,6.2,NW,2.3,-,N/A,,Scattered Clouds,320,2012-12-12 23:00:00
12:30 AM,48.2,46.4,93,30.01,6.2,WNW,2.3,-,N/A,,Scattered Clouds,300,2012-12-12 23:30:00
1:00 AM,50,47,85,30.01,6,WNW,5.8,,,,Scattered Clouds,300,2012-12-13 00:00:00
1:00 AM,48.2,48.2,100,30.01,6.2,WNW,5.8,-,N/A,,Partly Cloudy,300,2012-12-13 00:00:00
1:30 AM,50.0,48.2,94,30.01,6.2,WNW,8.1,-,N/A,,Scattered Clouds,300,2012-12-13 00:30:00
2:00 AM,50.0,48.2,94,29.98,6.2,WNW,4.6,-,N/A,,Partly Cloudy,290,2012-12-13 01:00:00
2:30 AM,48.2,48.2,100,29.98,6.2,WNW,2.3,-,N/A,,Scattered Clouds,300,2012-12-13 01:30:00
3:30 AM,50.0,48.2,94,29.98,6.2,NW,4.6,-,N/A,,Mostly Cloudy,310,2012-12-13 02:30:00
4:00 AM,50.0,48.2,94,29.98,6.2,NW,2.3,-,N/A,,Mostly Cloudy,310,2012-12-13 03:00:00
4:30 AM,48.2,48.2,100,29.98,6.2,WNW,4.6,-,N/A,,Mostly Cloudy,290,2012-12-13 03:30:00
5:00 AM,50.0,48.2,94,29.98,6.2,WNW,8.1,-,N/A,,Mostly Cloudy,290,2012-12-13 04:00:00
5:30 AM,50.0,48.2,94,29.98,6.2,WNW,5.8,-,N/A,,Mostly Cloudy,290,2012-12-13 04:30:00
6:00 AM,50.0,48.2,94,29.98,6.2,WNW,3.5,-,N/A,,Scattered Clouds,300,2012-12-13 05:00:00
6:30 AM,50.0,48.2,94,29.98,6.2,WNW,6.9,-,N/A,,Scattered Clouds,290,2012-12-13 05:30:00
7:00 AM,49,47,92,29.98,6,NW,3.5,,,,Scattered Clouds,310,2012-12-13 06:00:00
7:00 AM,46.4,46.4,100,29.98,6.2,NW,3.5,-,N/A,,Partly Cloudy,310,2012-12-13 06:00:00
7:30 AM,48.2,46.4,93,29.98,6.2,WNW,6.9,-,N/A,,Partly Cloudy,290,2012-12-13 06:30:00
8:00 AM,48.2,46.4,93,29.98,6.2,WNW,5.8,-,N/A,,Partly Cloudy,300,2012-12-13 07:00:00
8:30 AM,46.4,46.4,100,29.98,6.2,WNW,5.8,-,N/A,,Partly Cloudy,300,2012-12-13 07:30:00
9:00 AM,46.4,46.4,100,30.01,6.2,WNW,6.9,-,N/A,,Partly Cloudy,290,2012-12-13 08:00:00
9:30 AM,48.2,48.2,100,30.01,-9999.0,WNW,3.5,-,N/A,,Clear,300,2012-12-13 08:30:00
10:00 AM,50.0,48.2,94,30.01,-9999.0,WNW,4.6,-,N/A,,Clear,300,2012-12-13 09:00:00
10:30 AM,51.8,50.0,94,30.04,-9999.0,NW,3.5,-,N/A,,Clear,310,2012-12-13 09:30:00
11:00 AM,53.6,51.8,94,30.04,-9999.0,NW,3.5,-,N/A,,Clear,310,2012-12-13 10:00:00
11:30 AM,57.2,51.8,82,30.04,6.2,Variable,2.3,-,N/A,,Partly Cloudy,0,2012-12-13 10:30:00
12:00 PM,59.0,51.8,77,30.04,6.2,Variable,1.2,-,N/A,,Partly Cloudy,0,2012-12-13 11:00:00
12:30 PM,60.8,51.8,72,30.01,6.2,Calm,Calm,-,N/A,,Partly Cloudy,0,2012-12-13 11:30:00
1:00 PM,63,52,58,30.03,12,,2.3,,,,Scattered Clouds,,2012-12-13 12:00:00
1:00 PM,62.6,53.6,72,30.01,6.2,Variable,2.3,-,N/A,,Partly Cloudy,0,2012-12-13 12:00:00
1:30 PM,62.6,53.6,72,30.01,6.2,Variable,2.3,-,N/A,,Partly Cloudy,0,2012-12-13 12:30:00
2:00 PM,62.6,53.6,72,30.01,6.2,SE,3.5,-,N/A,,Partly Cloudy,140,2012-12-13 13:00:00
2:30 PM,64.4,53.6,68,29.98,6.2,Variable,2.3,-,N/A,,Partly Cloudy,0,2012-12-13 13:30:00
3:00 PM,62.6,53.6,72,29.98,6.2,SSE,3.5,-,N/A,,Partly Cloudy,150,2012-12-13 14:00:00
3:30 PM,62.6,53.6,72,29.98,6.2,South,3.5,-,N/A,,Partly Cloudy,170,2012-12-13 14:30:00
4:00 PM,62.6,53.6,72,29.98,6.2,South,5.8,-,N/A,,Partly Cloudy,190,2012-12-13 15:00:00
4:30 PM,60.8,55.4,82,29.98,6.2,South,3.5,-,N/A,,Partly Cloudy,180,2012-12-13 15:30:00
5:00 PM,60.8,53.6,77,29.98,6.2,SSW,6.9,-,N/A,,Partly Cloudy,200,2012-12-13 16:00:00
5:30 PM,59.0,53.6,82,29.98,6.2,SSW,3.5,-,N/A,,Partly Cloudy,200,2012-12-13 16:30:00
6:00 PM,59.0,53.6,82,29.98,6.2,SSW,2.3,-,N/A,,Partly Cloudy,210,2012-12-13 17:00:00
6:30 PM,55.4,51.8,88,29.98,6.2,Calm,Calm,-,N/A,,Partly Cloudy,0,2012-12-13 17:30:00
7:00 PM,57,51,73,30.01,9,Calm,Calm,,,,Scattered Clouds,,2012-12-13 18:00:00
7:00 PM,55.4,50.0,82,30.01,6.2,Calm,Calm,-,N/A,,Partly Cloudy,0,2012-12-13 18:00:00
7:30 PM,51.8,50.0,94,30.01,6.2,NW,3.5,-,N/A,,Partly Cloudy,310,2012-12-13 18:30:00
8:00 PM,55.4,50.0,82,30.01,6.2,West,6.9,-,N/A,,Partly Cloudy,270,2012-12-13 19:00:00
8:30 PM,55.4,50.0,82,30.01,6.2,West,5.8,-,N/A,,Partly Cloudy,270,2012-12-13 19:30:00
9:00 PM,57.2,50.0,77,30.01,6.2,West,6.9,-,N/A,,Partly Cloudy,280,2012-12-13 20:00:00
9:30 PM,55.4,50.0,82,30.04,6.2,WNW,6.9,-,N/A,,Partly Cloudy,290,2012-12-13 20:30:00
10:00 PM,51.8,48.2,88,30.04,6.2,NW,3.5,-,N/A,,Partly Cloudy,310,2012-12-13 21:00:00
10:30 PM,50.0,48.2,94,30.04,6.2,WNW,4.6,-,N/A,,Partly Cloudy,300,2012-12-13 21:30:00
11:00 PM,48.2,46.4,93,30.04,6.2,NW,2.3,-,N/A,,Partly Cloudy,310,2012-12-13 22:00:00